STARLINK-32579, 61922

Orbit data source: Space-Track

STARLINK-32579, 61922 is a payload satellite owned by SpaceX/Seattle (US) in LEO that was launched on Mon, 11 Nov 2024 UTC via an FALCON 9 launch vehicle from the Air Force Eastern Test Range (AFETR). Payload-class satellites include a variety of spacecraft equipped with specific instruments for various scientific and technological missions. These include communications satellites like Starlink; space stations such as the ISS; scientific satellites like the Hubble; Earth observation satellites from companies like Planet Labs, Umbra, and HawkEye 360; GPS; miniature CubeSats for education and research; and military/defense satellites.

Loading next visibility...
Identifier
61922, 2024-207L
Orbit
LEO
Country
Flag of USUS
Related business
Manufacturer
SpaceX/Seattle
Mission
Operational Commercial Communications
Bus & Motor
STARLINK V2M, Unknown motor
Mass
730 kg wet, ~700 kg dry
Launch date (UTC)
2024-11-11 (2 years ago)
Launch vehicle
FALCON 9
Launch site
Air Force Eastern Test Range (AFETR)
Object type
Payload
Rocket body
Debris
Shape & HBR
Box + 2 Pan, 17.7 m
Radar Cross Section
33.884 m², Large (>1 m²)

Expand to show TLE details & history
Last TLE update: 9 hours ago

TLE from 9 hours ago
0 STARLINK-32579
1 61922U 24207L   26145.54543758  .00010129  00000-0  37702-3 0  9999
2 61922  42.9997 211.3775 0001491 274.1487  85.9194 15.27587365 86432
Epoch: 2026-05-25T13:05Z
TLE epoch observation values (Epoch: 2026-05-25T13:05:25.806Z)
Latitude
-0.00005°
Longitude
131.88823°
Altitude
482.73 km
Speed
7.626 km/s
True Right ascension
14h 05m 30s
True Declination
0° 00' 00"
Sunlit
Object was in full shadow at epoch
Visualization orbit readout
Latitude
Unknown
Longitude
Unknown
Altitude
Unknown
Speed
Unknown
Apparent Right ascension
Unknown
Apparent Declination
Unknown
Sunlit
N/A
Visualization observer readout
Local Sidereal Time
07:16:56
Azimuth
Unknown
Elevation
Unknown
Doppler factor
Unknown
Orbital elements
Apogee altitude
485.996 km
Perigee altitude
483.949 km
Semi-major axis
6,863.109 km
Eccentricity
0.00015
Inclination
42.9997°
RAAN
211.3775°
Arg. of periapsis
274.1487°
True anomaly
85.93644°
Mean anomaly
85.9194°
Eccentric anomaly
85.92792°
Mean motion
3.81735 °/min
Orbital period
94.31 mins
BSTAR
0.00037702
Loading maneuver chart data...
Computing Atmospheric mass density...
Loading historical data...
Loading historical data...
Loading historical data...
Loading historical data...
Loading historical data...
Loading historical data...
Loading historical data...

Documentation

Showing up to 5 results
|